TimeCST,TemperatureF,Dew PointF,Humidity,Sea Level PressureIn,VisibilityMPH,Wind Direction,Wind SpeedMPH,Gust SpeedMPH,PrecipitationIn,Events,Conditions,WindDirDegrees,DateUTC
1:50 AM,71.6,64.4,78,2.95,7.0,SSE,16.1,-,N/A,,Overcast,160,1999-01-22 07:50:00
2:50 AM,69.8,64.4,83,29.53,7.0,SSE,13.8,23.0,N/A,,Overcast,150,1999-01-22 08:50:00
3:50 AM,69.8,66.2,88,29.91,7.0,SSE,18.4,-,N/A,,Overcast,150,1999-01-22 09:50:00
4:50 AM,69.8,66.2,88,29.51,7.0,SSE,16.1,-,N/A,,Overcast,150,1999-01-22 10:50:00
5:50 AM,69.8,66.2,88,29.50,7.0,ESE,16.1,25.3,N/A,Rain,Light Rain,120,1999-01-22 11:50:00
6:50 AM,69.8,66.2,88,29.52,5.0,SSE,13.8,20.7,N/A,Rain-Thunderstorm,Thunderstorms and Rain,160,1999-01-22 12:50:00
7:50 AM,69.8,66.2,88,29.52,5.0,South,13.8,-,N/A,,Overcast,180,1999-01-22 13:50:00
8:55 AM,71.6,66.2,83,29.52,5.0,South,16.1,-,N/A,,Overcast,180,1999-01-22 14:55:00
9:56 AM,57.2,55.4,94,29.55,3.0,NW,16.1,-,N/A,Rain,Rain,320,1999-01-22 15:56:00
10:36 AM,57.2,55.4,94,29.57,7.0,North,12.7,-,N/A,Rain,Light Rain,360,1999-01-22 16:36:00
10:50 AM,57.2,55.4,94,29.57,7.0,NNE,18.4,-,N/A,,Overcast,20,1999-01-22 16:50:00
11:50 AM,57.2,55.4,94,29.53,7.0,North,16.1,-,N/A,,Overcast,360,1999-01-22 17:50:00
12:15 PM,57.2,55.4,94,29.57,7.0,WNW,23.0,-,N/A,,Overcast,300,1999-01-22 18:15:00
12:45 PM,57.2,55.4,94,29.51,7.0,NNW,13.8,-,N/A,,Mostly Cloudy,340,1999-01-22 18:45:00
2:50 PM,60.8,55.4,82,29.51,10.0,North,6.9,-,N/A,,Mostly Cloudy,360,1999-01-22 20:50:00
3:48 PM,60.8,55.4,82,29.53,10.0,NW,8.1,-,N/A,,Overcast,320,1999-01-22 21:48:00
4:50 PM,60.8,55.4,82,29.58,10.0,WNW,11.5,-,N/A,,Mostly Cloudy,290,1999-01-22 22:50:00
5:50 PM,57.2,55.4,94,29.58,10.0,WNW,6.9,-,N/A,,Clear,290,1999-01-22 23:50:00
6:50 PM,57.2,55.4,94,29.62,10.0,WNW,10.4,-,N/A,,Clear,300,1999-01-23 00:50:00
7:50 PM,55.4,55.4,100,29.63,10.0,WSW,4.6,-,N/A,,Clear,240,1999-01-23 01:50:00
8:55 PM,51.8,51.8,100,29.66,10.0,WSW,5.8,-,N/A,,Clear,240,1999-01-23 02:55:00
9:50 PM,53.6,53.6,100,29.66,10.0,SSW,4.6,-,N/A,,Clear,210,1999-01-23 03:50:00
10:50 PM,55.4,48.2,77,29.71,10.0,West,23.0,-,N/A,,Clear,280,1999-01-23 04:50:00
11:50 PM,53.6,46.4,77,29.74,7.0,West,11.5,-,N/A,,Clear,280,1999-01-23 05:50:00